Simultaneous Nadir Overpasses (SNOs) Predictions

Prediction of SNOs between FY3D and NOAA-19 Satellite Orbit:

Table of predicted SNOs for the next 14.0 days since TLE Epoch: 11/4/2023
Index Date (FY3D) Time (FY3D) Lat,Lon (FY3D) SZA (FY3D ) Date (NOAA-19) Time (NOAA-19) Lat,Lon (NOAA-19) SZA (NOAA-19 ) Distance(km) Time Diff (sec)
1 11/09/2023 13:26:33 -76.14, 153.16 87.06 11/09/2023 13:25:21 -76.11, 151.91 87.08 33.51 72
2 11/09/2023 14:17:23 76.31, -40.13 93.13 11/09/2023 14:16:20 76.33, -40.05 93.15 3.01 63
3 11/09/2023 15:08:08 -76.31, 127.16 86.86 11/09/2023 15:07:15 -76.32, 127.19 86.86 0.82 53
4 11/09/2023 15:58:55 76.34, -65.63 93.18 11/09/2023 15:58:19 76.31, -65.60 93.15 3.41 36
5 11/09/2023 16:49:40 -76.35, 101.66 86.81 11/09/2023 16:49:13 -76.35, 101.81 86.81 4.02 27
6 11/09/2023 17:40:26 76.33, -90.97 93.19 11/09/2023 17:40:17 76.34, -90.97 93.20 1.20 9
7 11/09/2023 18:31:11 -76.34, 76.32 86.80 11/09/2023 18:31:12 -76.33, 76.26 86.80 1.49 1
8 11/09/2023 19:21:58 76.36,-116.48 93.25 11/09/2023 19:22:15 76.37,-116.35 93.25 3.45 17
9 11/09/2023 20:12:43 -76.37, 50.81 86.74 11/09/2023 20:13:10 -76.36, 50.89 86.75 2.19 27
10 11/09/2023 21:03:29 76.35,-141.82 93.26 11/09/2023 21:04:14 76.36,-141.90 93.26 2.08 45
11 11/09/2023 21:54:14 -76.36, 25.47 86.73 11/09/2023 21:55:08 -76.39, 25.51 86.70 3.53 54
12 11/09/2023 22:45:01 76.39,-167.33 93.31 11/09/2023 22:46:12 76.39,-167.28 93.31 1.35 71
13 11/09/2023 23:35:52 -76.66, -1.06 86.40 11/09/2023 23:37:02 -76.59, 0.82 86.49 48.82 70



Historial Predications of SNOs between FY3D and NOAA-19
